Portada
METAR-TAF:

METAR-TAF

Aeropuertos :

Paso de los Libres, Argentina

Aeropuerto Internacional de Paso de los Libres

latitud: 29-41S, longitud: 057-09W, altitud: 69 m

Observación

El informe se hizo hace 46 minutos, a las 09:00 UTC
Viento 3 kt del este-noreste
Temperatura 21°C
Humedad 88%
Presión 1016 hPa
Visibilidad 10 km o más
sin nubes por debajo de 1500 m y sin presencia de cumulonimbus.

METAR: SARL 190900Z 07003KT CAVOK 21/19 Q1016

Hora: 06:46 (09:46 UTC)


TAF: falta

Observaciones y pronósticos meteorológicos de más de 4000 aeropuertos (mensajes METAR y TAF).

Los puntos amarillos y rojos representan las estaciones disponibles.

Ponga el ratón en el punto deseado para ver el nombre de la estación.

Haga clic para ver las observaciones y los pronósticos meteorológicos.

Para cambiar el mapa : haga clic en los botones verdes con una cruz de color negro para hacer un zoom, en el botón verde con un guión para alejar o en las flechas verdes para mapas adyacentes.


METAR-TAF: